Home > Weather > Pori > Past weeks

Flag for Finland Weather for the Past 2 Weeks in Pori, Finland

Now
59 °F

Sunny.


Feels Like: 57 °F
Forecast: 35 / 60 °F
Wind: 13 mph from West

Location: Pori Airport

Current Time: May 4, 2016 at 5:04:41 PM

Latest Report: May 4, 2016 at 4:20 PM


Visibility: 10 mi

Pressure: 30.21 "Hg

Humidity: 34%

Dew Point: 30 °F

Location of PoriLocation

Historic Weather in Pori — Graph

°F

Pori Temperature Yesterday

Maximum temperature yesterday: 63 °F (at 12:50 PM)
Minimum temperature yesterday: 39 °F (at 5:20 AM)
Average temperature yesterday: 52 °F

High & Low Weather Summary for the Past Weeks

 TemperatureHumidityPressure
High63 °F (May 3, 12:50 PM)100% (Apr 21, 6:50 AM)30.39 "Hg (Apr 21, 6:50 AM)
Low27 °F (Apr 21, 6:20 AM)19% (May 1, 12:20 PM)29.36 "Hg (Apr 25, 7:50 AM)
Average42 °F71%29.92 "Hg
* Reported Apr 19 3:20 PM — May 4 3:20 PM, Pori, Weather by CustomWeather, © 2016

Note: Actual official high and low records may vary slightly from our data, if they occured in-between our weather recording intervals... More about our weather records

Advertising

Pori Weather History for the Previous 24 Hours

Scroll right to see more
 ConditionsComfort  
Time TempWeatherWind HumidityBarometerVisibility
3:20 PM
Wed, May 4
59 °FPassing clouds.12 mph39%30.18 "HgN/A
1:50 PM61 °FPassing clouds.12 mph39%30.18 "HgN/A
1:20 PM61 °FPassing clouds.10 mph36%30.18 "HgN/A
12:20 PM61 °FPassing clouds.9 mph39%30.18 "HgN/A
11:50 AM59 °FSunny.7 mph42%30.18 "Hg10 mi
10:50 AM59 °FPassing clouds.6 mph39%30.15 "HgN/A
10:20 AM57 °FPassing clouds.3 mph41%30.15 "HgN/A
9:20 AM54 °FPassing clouds.5 mph47%30.15 "HgN/A
8:50 AM52 °FPassing clouds.5 mph50%30.15 "HgN/A
8:20 AM50 °FPassing clouds.5 mph54%30.15 "HgN/A
3:50 AM41 °FClear.5 mph76%30.12 "Hg10 mi
3:20 AM43 °FClear.2 mph71%30.12 "Hg10 mi
2:50 AM43 °FClear.2 mph71%30.12 "Hg10 mi
1:50 AM46 °FClear.2 mph66%30.12 "Hg10 mi
1:20 AM46 °FClear.2 mph66%30.09 "Hg10 mi
12:50 AM50 °FClear.5 mph58%30.09 "Hg10 mi
12:20 AM50 °FClear.2 mph62%30.09 "Hg10 mi
11:50 PM
Tue, May 3
50 °FClear.2 mph62%30.09 "Hg10 mi
11:20 PM52 °FClear.2 mph50%30.09 "Hg10 mi
10:50 PM52 °FClear.2 mph54%30.09 "Hg10 mi
10:20 PM52 °FSunny.3 mph50%30.09 "Hg10 mi
9:50 PM54 °FSunny.1 mph47%30.09 "Hg10 mi
9:20 PM55 °FSunny.2 mph44%30.07 "Hg10 mi
8:50 PM55 °FPassing clouds.3 mph41%30.07 "HgN/A
8:20 PM55 °FPassing clouds.6 mph38%30.07 "HgN/A
7:50 PM57 °FPassing clouds.8 mph29%30.07 "HgN/A
7:20 PM57 °FPassing clouds.7 mph31%30.07 "HgN/A
6:50 PM59 °FPassing clouds.8 mph34%30.07 "HgN/A
6:20 PM59 °FPassing clouds.9 mph31%30.07 "HgN/A
5:50 PM59 °FSunny.10 mph29%30.07 "Hg10 mi
5:20 PM59 °FSunny.10 mph31%30.07 "Hg10 mi
Weather by CustomWeather, © 2016

See weather overviewHow to use our weather pages